Back to catalog

JILIN-1 GAOFEN 05B

AliveScienceSSO
NORAD 61897·PAYLOAD·🇨🇳 China
This satellite name has not been confirmed by official sources yet.

Launched Nov 11, 2024 from Jiuquan Satellite Launch Center

Loading…

Next Passes (next 24 hours)

TLE

FreshSource: Space-Track

Epoch: Sep 14, 2026, 14:51 UTC

1 61897U 24205D   26257.61913286  .00005019  00000-0  24325-3 0  9996
2 61897  97.4017 327.2710 0013327 104.8881 255.3831 15.18897541101850

Track JILIN-1 GAOFEN 05B in real time with AllMySat

Download on the App Store